Weather History for Kaiser, MO

Change the Weather History Date:

Wednesday, March 13, 2013

  Actual Average Record
Temperature  
Mean Temperature 35 °F -  
Max Temperature 44 °F 52 °F 82 °F (2012)
Min Temperature 26 °F 33 °F 23 °F (2009)
Degree Days  
Heating Degree Days 30    
Moisture  
Dew Point 17 °F    
Average Humidity 51    
Maximum Humidity 69    
Minimum Humidity 27    
Precipitation  
Precipitation 0.00 in - - ()
Sea Level Pressure  
Sea Level Pressure 30.40 in    
Wind  
Wind Speed 6 mph (NW)    
Max Wind Speed 10 mph    
Max Gust Speed 18 mph    
Visibility 10 miles    
Events      
Averages and records for this station are not official NWS values.
T = Trace of Precipitation, MM = Missing Value Source: NWS Daily Summary

Daily Weather History Graph

Daily Weather History Graph

Search for Another Location

Airport:

Trip Planner

Search our weather history database for the weather conditions in past years. The results will help you decide how hot, cold, wet, or windy it might be!

Date:

Astronomy

Mar. 13, 2013 Rise Set
Actual Time 7:23 AM CDT 7:15 PM CDT
Civil Twilight 6:57 AM CDT 7:41 PM CDT
Nautical Twilight 6:27 AM CDT 8:12 PM CDT
Astronomical Twilight 5:56 AM CDT 8:43 PM CDT
Moon 8:06 AM CDT (3/13) 9:29 PM CDT (3/13)
Length of Visible Light 12h 44m
Length of Day
11h 51m
Waxing Crescent, 4% of the Moon is Illuminated
Mar 13
Waxing Crescent
Mar 19
First Quarter
Mar 27
Full
Apr 2
Last Quarter
Apr 10
New

Hourly Weather History & Observations

Time (CDT) Temp. Windchill Dew Point Humidity Pressure Visibility Wind Dir Wind Speed Gust Speed Precip Events Conditions
12:55 AM 32.0 °F 26.4 °F 19.4 °F 60% 30.31 in 10.0 mi WNW 5.8 mph - N/A   Clear
1:15 AM 32.0 °F 26.4 °F 19.4 °F 60% 30.31 in 10.0 mi WNW 5.8 mph - N/A   Partly Cloudy
1:35 AM 32.0 °F 26.4 °F 19.4 °F 60% 30.31 in 10.0 mi NW 5.8 mph - N/A   Clear
1:55 AM 30.2 °F 22.6 °F 19.4 °F 64% 30.32 in 10.0 mi NW 8.1 mph - N/A   Partly Cloudy
2:15 AM 30.2 °F 22.6 °F 19.4 °F 64% 30.32 in 10.0 mi NW 8.1 mph - N/A   Partly Cloudy
2:35 AM 30.2 °F 25.4 °F 19.4 °F 64% 30.33 in 10.0 mi NW 4.6 mph - N/A   Mostly Cloudy
2:55 AM 30.2 °F 25.4 °F 19.4 °F 64% 30.33 in 10.0 mi NW 4.6 mph - N/A   Overcast
3:15 AM 30.2 °F 26.7 °F 19.4 °F 64% 30.33 in 10.0 mi NW 3.5 mph - N/A   Overcast
3:55 AM 30.2 °F 21.9 °F 19.4 °F 64% 30.33 in 10.0 mi NW 9.2 mph - N/A   Overcast
4:15 AM 30.2 °F 22.6 °F 17.6 °F 60% 30.33 in 10.0 mi NW 8.1 mph - N/A   Scattered Clouds
4:35 AM 28.4 °F 21.2 °F 17.6 °F 64% 30.33 in 10.0 mi NW 6.9 mph - N/A   Partly Cloudy
4:55 AM 28.4 °F 21.2 °F 17.6 °F 64% 30.33 in 10.0 mi WNW 6.9 mph - N/A   Clear
5:15 AM 28.4 °F 19.7 °F 17.6 °F 64% 30.34 in 10.0 mi NNW 9.2 mph - N/A   Clear
5:35 AM 28.4 °F 22.2 °F 17.6 °F 64% 30.35 in 10.0 mi NW 5.8 mph 17.3 mph N/A   Clear
5:55 AM 28.4 °F 23.3 °F 15.8 °F 59% 30.36 in 10.0 mi NW 4.6 mph - N/A   Clear
6:15 AM 28.4 °F 21.2 °F 15.8 °F 59% 30.36 in 10.0 mi NNW 6.9 mph 16.1 mph N/A   Partly Cloudy
6:35 AM 28.4 °F 19.7 °F 15.8 °F 59% 30.37 in 10.0 mi NNW 9.2 mph 18.4 mph N/A   Partly Cloudy
6:55 AM 26.6 °F 18.2 °F 15.8 °F 64% 30.38 in 10.0 mi NNW 8.1 mph - N/A   Partly Cloudy
7:35 AM 26.6 °F 20.0 °F 15.8 °F 64% 30.40 in 10.0 mi NW 5.8 mph - N/A   Clear
7:55 AM 26.6 °F 19.1 °F 17.6 °F 69% 30.40 in 10.0 mi NW 6.9 mph - N/A   Clear
8:15 AM 26.6 °F 18.2 °F 17.6 °F 69% 30.40 in 10.0 mi NNW 8.1 mph - N/A   Clear
8:35 AM 28.4 °F 19.1 °F 17.6 °F 64% 30.41 in 10.0 mi NNW 10.4 mph - N/A   Clear
8:55 AM 28.4 °F 21.2 °F 17.6 °F 64% 30.42 in 10.0 mi NNW 6.9 mph 16.1 mph N/A   Clear
9:15 AM 28.4 °F 22.2 °F 15.8 °F 59% 30.43 in 10.0 mi NW 5.8 mph - N/A   Clear
9:35 AM 30.2 °F 22.6 °F 17.6 °F 60% 30.43 in 10.0 mi NNW 8.1 mph - N/A   Clear
9:55 AM 30.2 °F 22.6 °F 15.8 °F 55% 30.45 in 10.0 mi NW 8.1 mph - N/A   Clear
10:15 AM 30.2 °F 22.6 °F 15.8 °F 55% 30.46 in 10.0 mi NNW 8.1 mph - N/A   Clear
10:35 AM 32.0 °F 24.8 °F 15.8 °F 51% 30.46 in 10.0 mi NNW 8.1 mph - N/A   Clear
10:55 AM 33.8 °F 27.7 °F 15.8 °F 48% 30.46 in 10.0 mi NW 6.9 mph - N/A   Clear
11:15 AM 33.8 °F 27.7 °F 15.8 °F 48% 30.47 in 10.0 mi North 6.9 mph - N/A   Clear
11:35 AM 33.8 °F 26.4 °F 12.2 °F 41% 30.47 in 10.0 mi NNW 9.2 mph - N/A   Clear
11:55 AM 35.6 °F 30.7 °F 12.2 °F 38% 30.48 in 10.0 mi North 5.8 mph - N/A   Clear
12:15 PM 37.4 °F 32.1 °F 14.0 °F 38% 30.48 in 10.0 mi NNW 6.9 mph - N/A   Clear
12:35 PM 37.4 °F 30.3 °F 14.0 °F 38% 30.47 in 10.0 mi WNW 10.4 mph 16.1 mph N/A   Clear
12:55 PM 39.2 °F 33.6 °F 15.8 °F 39% 30.48 in 10.0 mi NW 8.1 mph 17.3 mph N/A   Clear
1:15 PM 39.2 °F 35.0 °F 15.8 °F 39% 30.48 in 10.0 mi North 5.8 mph - N/A   Clear
1:35 PM 39.2 °F 32.5 °F 15.8 °F 39% 30.47 in 10.0 mi West 10.4 mph 17.3 mph N/A   Clear
1:55 PM 41.0 °F 35.8 °F 15.8 °F 36% 30.47 in 10.0 mi West 8.1 mph - N/A   Clear
2:15 PM 41.0 °F 37.1 °F 15.8 °F 36% 30.46 in 10.0 mi North 5.8 mph - N/A   Clear
2:35 PM 42.8 °F 39.3 °F 15.8 °F 34% 30.45 in 10.0 mi NNW 5.8 mph - N/A   Clear
2:55 PM 42.8 °F 38.6 °F 15.8 °F 34% 30.43 in 10.0 mi North 6.9 mph - N/A   Clear
3:15 PM 42.8 °F 40.1 °F 14.0 °F 31% 30.43 in 10.0 mi West 4.6 mph - N/A   Clear
3:35 PM 44.6 °F 42.2 °F 15.8 °F 31% 30.43 in 10.0 mi NW 4.6 mph - N/A   Clear
4:15 PM 44.6 °F 40.2 °F 15.8 °F 31% 30.42 in 10.0 mi WSW 8.1 mph - N/A   Clear
4:35 PM 44.6 °F 42.2 °F 17.6 °F 34% 30.42 in 10.0 mi NNW 4.6 mph - N/A   Clear
4:55 PM 44.6 °F 40.7 °F 15.8 °F 31% 30.42 in 10.0 mi West 6.9 mph - N/A   Clear
5:15 PM 44.6 °F 40.7 °F 14.0 °F 29% 30.41 in 10.0 mi NW 6.9 mph - N/A   Clear
5:35 PM 44.6 °F 40.7 °F 15.8 °F 31% 30.41 in 10.0 mi North 6.9 mph - N/A   Clear
5:55 PM 44.6 °F - 12.2 °F 27% 30.40 in 10.0 mi Calm Calm - N/A   Clear
6:15 PM 44.6 °F 42.2 °F 15.8 °F 31% 30.40 in 10.0 mi WNW 4.6 mph - N/A   Mostly Cloudy
6:35 PM 42.8 °F 41.1 °F 15.8 °F 34% 30.40 in 10.0 mi North 3.5 mph - N/A   Mostly Cloudy
6:55 PM 42.8 °F - 15.8 °F 34% 30.40 in 10.0 mi Calm Calm - N/A   Mostly Cloudy
7:15 PM 42.8 °F 41.1 °F 15.8 °F 34% 30.40 in 10.0 mi North 3.5 mph - N/A   Partly Cloudy
7:35 PM 41.0 °F 39.0 °F 15.8 °F 36% 30.40 in 10.0 mi NNE 3.5 mph - N/A   Partly Cloudy
7:55 PM 39.2 °F - 17.6 °F 42% 30.40 in 10.0 mi Calm Calm - N/A   Scattered Clouds
8:15 PM 37.4 °F - 17.6 °F 45% 30.40 in 10.0 mi Calm Calm - N/A   Scattered Clouds
8:35 PM 37.4 °F - 17.6 °F 45% 30.40 in 10.0 mi Calm Calm - N/A   Mostly Cloudy
8:55 PM 35.6 °F - 17.6 °F 48% 30.40 in 10.0 mi Calm Calm - N/A   Partly Cloudy
9:15 PM 33.8 °F - 19.4 °F 56% 30.40 in 10.0 mi Calm Calm - N/A   Clear
9:35 PM 32.0 °F - 19.4 °F 60% 30.40 in 10.0 mi Calm Calm - N/A   Clear
9:55 PM 30.2 °F - 17.6 °F 60% 30.41 in 10.0 mi Calm Calm - N/A   Clear
10:15 PM 32.0 °F - 21.2 °F 64% 30.42 in 10.0 mi Calm Calm - N/A   Clear
10:35 PM 33.8 °F - 19.4 °F 56% 30.42 in 10.0 mi Calm Calm - N/A   Partly Cloudy
10:55 PM 30.2 °F - 19.4 °F 64% 30.41 in 10.0 mi Calm Calm - N/A   Scattered Clouds
11:15 PM 30.2 °F - 19.4 °F 64% 30.41 in 10.0 mi Calm Calm - N/A   Partly Cloudy
11:35 PM 30.2 °F - 19.4 °F 64% 30.41 in 10.0 mi Calm Calm - N/A   Clear
11:55 PM 28.4 °F - 19.4 °F 69% 30.41 in 10.0 mi Calm Calm - N/A   Clear